Meteo Giornale » Osservazioni meteo Francia » Cannes

ore: 16:00 - Osservazioni Meteo Cannes
Lat. 43° 33' N Lon. 6° 57' E Alt. 3 metri s.l.m.

sereno Europe/Paris

25 °C

Sereno

Temp. 24 Ore

11 °C

26 °C

Ovest

37 Km/h

Dew point 7 °C

Umidità 31 %

Visibilità  10 Km

Il sole sorge alle ore 07:28

Il sole tramonta alle ore 19:15

Data e Ora Cielo e Fenomeni T °C DP °C Um. % Pres. hPa Vis. km Vento km/h
Oggi h: 16:00 sereno Sereno 25 7 31 1014 10 O 37
Oggi h: 15:30 sereno Sereno 26 7 29 1014 10 O/SO 31.5
Oggi h: 15:00 sereno Sereno 25 6 29 1015 10 O/SO 35.2
Oggi h: 14:30 sereno Sereno 24 5 29 1015 10 O/SO 37
Oggi h: 14:00 sereno Sereno 25 5 27 1015 10 O/SO 35.2
Oggi h: 13:30 sereno Sereno 24 5 29 1015 10 O/SO 35.2
Oggi h: 13:00 sereno Sereno 24 5 29 1016 10 O 14.8
Oggi h: 12:30 sereno Sereno 22 6 35 1017 10 O 13
Oggi h: 12:00 sereno Sereno 22 8 40 1017 10 N 3.7
Oggi h: 11:30 sereno Sereno 20 8 45 1017 10 N/NE 7.4
Oggi h: 11:00 sereno Sereno 19 7 45 1018 10 S 7.4
Oggi h: 10:30 sereno Sereno 18 8 51 1017 10 N 0
Oggi h: 10:00 sereno Sereno 17 8 55 1017 10 N 1.8
Oggi h: 09:30 sereno Sereno 15 8 62 1017 10 N 3.7
Oggi h: 09:00 sereno Sereno 13 8 71 1017 10 N 5.5
Oggi h: 08:30 sereno Sereno 12 8 76 1017 10 N 7.4
Oggi h: 08:00 sereno Sereno 11 8 81 1017 10 N 5.5
Oggi h: 07:30 sereno Sereno 11 8 81 1017 10 N/NE 7.4
Oggi h: 07:00 sereno Sereno 12 8 76 1017 10 N 3.7
Oggi h: 06:30 sereno Sereno 12 8 76 1017 10 N 3.7
Oggi h: 06:00 sereno Sereno 12 8 76 1016 10 N 5.5
Oggi h: 05:30 sereno Sereno 12 9 81 1016 10 N 1.8
Oggi h: 05:00 sereno Sereno 12 9 81 1016 10 N 3.7
Oggi h: 04:30 sereno Sereno 12 9 81 1015 10 N 5.5
Oggi h: 04:00 sereno Sereno 12 10 87 1015 10 N 5.5
Oggi h: 03:30 sereno Sereno 13 10 81 1015 10 N 5.5
Oggi h: 03:00 sereno Sereno 14 10 76 1014 10 N 3.7
Oggi h: 02:30 sereno Sereno 14 10 76 1014 10 N 5.5
Oggi h: 02:00 sereno Sereno 15 10 72 1014 10 N 5.5
Oggi h: 01:30 sereno Sereno 15 9 67 1014 10 N 5.5
Oggi h: 01:00 molto_nuvoloso Molto Nuvoloso 16 9 63 1013 10 N 7.4
Oggi h: 00:30 nuvoloso_temporali Temporale nelle Vicinanze 17 9 59 1013 10 N 11.1
Oggi h: 00:00 molto_nuvoloso Molto Nuvoloso 15 12 82 1013 10 N 5.5
Ieri h: 23:30 coperto Coperto 15 12 82 1013 10 N 5.5
Ieri h: 23:00 nuvoloso Nuvoloso 15 11 76 1012 10 N 5.5
Ieri h: 22:30 molto_nuvoloso Molto Nuvoloso 15 12 82 1012 10 N 5.5
Ieri h: 22:00 sereno Sereno 15 11 76 1011 10 N 5.5
Ieri h: 21:30 sereno Sereno 16 11 72 1011 10 N 5.5
Ieri h: 21:00 sereno Sereno 16 11 72 1011 10 N 5.5
Ieri h: 20:30 sereno Sereno 17 12 72 1010 10 N 5.5
Ieri h: 20:00 sereno Sereno 17 11 67 1010 10 N 3.7
Ieri h: 19:30 sereno Sereno 19 11 59 1010 10 N 0
Ieri h: 19:00 sereno Sereno 19 12 63 1009 10 N 5.5
Ieri h: 18:30 molto_nuvoloso Molto Nuvoloso 20 12 59 1009 10 SE 7.4
Ieri h: 18:00 coperto Coperto 20 12 59 1008 10 S/SE 9.3
Ieri h: 17:30 nuvoloso Nuvoloso 21 12 56 1008 10 S 11.1
Ieri h: 17:00 sereno Sereno 21 11 52 1008 10 S 9.3